Погода в Идже

Россия / Красноярский край     53°11′15″N   91°58′43″E
темп.,
°C
ветер,
м/с
пор.,
м/с
влажн.,
%
обл.,
%
осадки,
мм/ч
давл.,
гПа
погр.,
м
18 мая, ср
ср1801:00+15ююв12564 0.0 101211
04:00+13ююв11585 0.0 101211
07:00+16юв11545 0.0 101383
10:00+23всв11406 0.0 1012467
13:00+27сз232635 0.0 10112126
16:00+29св132318 0.0 10102232
19:00+25юв2238100 0.0 101022
22:00+19ю114581 0.0 101211
19 мая, чт
чт1901:00+17юв115173 0.0 101111
04:00+15вюв225711 0.0 101111
07:00+17в125652 0.0 101192
10:00+24в23395 0.0 1009446
13:00+30всв01265 0.0 1007900
16:00+31ссз33217 0.0 10041805
19:00+21зюз131556100 0.6 1008401
22:00+16з467736 1.8 1010111
20 мая, пт
пт2001:00+16зюз41076100 1.9 1011223
04:00+16зюз4874100 0.1 1013183
07:00+17ю1177100 0.3 101540
10:00+21з6855100 0.6 10151217
13:00+23з683999 1.4 10142607
16:00+23з6739100 0.0 10142396
19:00+21юз364560 0.0 1014209
22:00+17зюз334844 0.0 101551
21 мая, сб
сб2101:00+15юз335111 0.0 101658
04:00+12ююз226141 0.0 101716
07:00+15ю2359100 0.0 1017109
10:00+22з473367 0.0 10161873
13:00+24сз3529100 0.0 10142032
16:00+25ссз222843 0.0 10121583
19:00+23всв22405 0.0 101145
22:00+17вюв33480 0.0 101124
22 мая, вс
вс2201:00+14вюв33590 0.0 101128
04:00+12в34645 0.0 101049
07:00+15в37635 0.0 1009186
10:00+22в56425 0.0 1006577
13:00+28в3431100 0.0 10041000
16:00+30всв1227100 0.0 10011411
19:00+23юз61352100 0.1 1004423
22:00+18ююз2268100 0.1 100516